Regional Weather Roundup
Issued by NWS

Home | Current Version | Previous Version | Text Only | Print | Product List | Glossary Off
Versions: 1 2 3 4 5 6 7 8 9 10 11 12 13 14 15 16 17 18 19 20 21 22 23 24 25 26 27

000
ASUS45 KBOI 101710
RWRID

IDAHO REGIONAL WEATHER ROUNDUP
NATIONAL WEATHER SERVICE BOISE ID
1000 AM MST SAT DEC 10 2016

NOTE: "FAIR" INDICATES FEW OR NO CLOUDS BELOW 12000 FEET
WITH NO SIGNIFICANT WEATHER AND/OR OBSTRUCTIONS TO VISIBILITY

IDZ012-014-101800-
SOUTHWEST IDAHO


CITY           SKY/WX    TMP DP  RH WIND       PRES   REMARKS
BOISE          CLOUDY    36  34  92 E7        29.85S WCI  30
CALDWELL       CLOUDY    32  31  96 CALM      29.88S FOG
MOUNTAIN HOME  CLOUDY    37  37 100 E5        29.86R WCI  33
$$

IDZ016-017-101800-
SOUTHCENTRAL IDAHO


CITY           SKY/WX    TMP DP  RH WIND       PRES   REMARKS
BURLEY         LGT RAIN  37  35  92 S15       29.84R WCI  28
JEROME         LGT RAIN  37  37 100 S6        29.87R VSB 1/4 WCI  32
TWIN FALLS     LGT RAIN  39  36  89 SW10      29.85R FOG     WCI  32
$$

IDZ019>023-101800-
SOUTHEAST IDAHO


CITY           SKY/WX    TMP DP  RH WIND       PRES   REMARKS
IDAHO FALLS    LGT RAIN  34  32  92 SW21G29   29.80S WCI  22
POCATELLO      LGT RAIN  37  34  89 SW13      29.84S WCI  29
REXBURG        CLOUDY    34  34 100 S16G24    29.78F WCI  24
$$

IDZ006-010-011-018-031-032-101800-
CENTRAL IDAHO MOUNTAINS


CITY           SKY/WX    TMP DP  RH WIND       PRES   REMARKS
MCCALL         CLOUDY    34  28  79 S9        29.75R WCI  27
HAILEY         LGT SNOW  34  34 100 SE7       29.82R WCI  28
STANLEY          N/A     35  27  72 W6        29.78R WCI  30
SALMON         CLOUDY    19  18  93 CALM      29.76S
CHALLIS        CLOUDY    24  23  96 CALM      29.72S
$$

IDZ002-004-006-007-026-101800-
NORTHERN IDAHO


CITY           SKY/WX    TMP DP  RH WIND       PRES   REMARKS
LEWISTON       CLOUDY    23  21  92 S5        29.93R WCI  17
LOWELL           N/A     30  27  88 CALM      29.90R
COEUR D`ALENE  CLOUDY    20  16  84 CALM      29.86R FOG
MULLAN PASS    SNOW      19  17  92 VRB5      29.63R VSB 1/4 WCI  12
$$




USA.gov is the U.S. government's official web portal to all federal, state and local government web resources and services.